Flag for India Weather past 2 weeks in Faridabad, Haryana, India

Now
97 °F

Haze.


Feels Like: 98 °F
Forecast: 78 / 98 °F
Wind: 9 mph from Northwest

Location: New Delhi Palam Airport

Current Time: Sep 5, 2015 at 4:43:55 PM

Latest Report: Sep 5, 2015 at 4:00 PM


Visibility: 3 mi

Pressure: 29.77 "Hg

Humidity: 32%

Dew point: 63 °F

Location of FaridabadLocation

Historic Weather in Faridabad — Graph

°F

Faridabad temperature yesterday

Maximum temperature yesterday: 97 °F (at 1:30 PM)
Minimum temperature yesterday: 77 °F (at 6:00 AM)
Average temperature yesterday: 89 °F

Past Weeks' High & Low Weather Summary

 TemperatureHumidityPressure
High99 °F (Aug 28, 2:30 PM)94% (Aug 23, 8:00 AM)29.86 "Hg (Aug 23, 8:00 AM)
Low75 °F (Aug 23, 11:30 PM)28% (Sep 5, 2:30 PM)29.56 "Hg (Aug 22, 3:30 PM)
Average88 °F63%29.66 "Hg
* Reported Aug 21 3:00 PM — Sep 5 3:00 PM, Faridabad, Weather by CustomWeather, © 2015

Note: Actual official high and low records may vary slightly from our data, if they occured in-between our weather recording intervals... More about our weather records

Advertising

Faridabad weather history for previous 24 hours

 ConditionsComfort  
Time TempWeatherWind HumidityBarometerVisibility
3:00 PM
Sat, Sep 5
97 °FHaze.14 mph32%29.77 "Hg3 mi
2:30 PM97 °FHaze.9 mph28%29.80 "Hg3 mi
2:00 PM97 °FHaze.9 mph34%29.80 "Hg3 mi
1:30 PM97 °FHaze.9 mph30%29.80 "Hg3 mi
1:00 PM97 °FHaze.9 mph32%29.83 "Hg3 mi
12:30 PM95 °FHaze.9 mph36%29.86 "Hg3 mi
12:00 PM93 °FHaze.14 mph41%29.86 "Hg3 mi
11:00 AM91 °FHaze.10 mph46%29.86 "Hg3 mi
10:30 AM91 °FHaze.10 mph46%29.86 "Hg2 mi
10:00 AM88 °FHaze.8 mph52%29.86 "Hg2 mi
9:30 AM86 °FHaze.8 mph52%29.86 "Hg2 mi
8:30 AM82 °FHaze.7 mph58%29.86 "Hg2 mi
8:00 AM82 °FHaze.6 mph58%29.83 "Hg2 mi
7:30 AM81 °FHaze.6 mph66%29.83 "Hg2 mi
7:00 AM81 °FHaze.6 mph66%29.83 "Hg2 mi
6:30 AM81 °FHaze.No wind66%29.83 "Hg2 mi
6:00 AM79 °FHaze.No wind70%29.83 "Hg2 mi
5:30 AM79 °FHaze.No wind70%29.80 "Hg2 mi
5:00 AM79 °FHaze.No wind70%29.80 "Hg2 mi
4:30 AM79 °FHaze.No wind70%29.80 "Hg2 mi
4:00 AM79 °FHaze.No wind70%29.80 "Hg2 mi
3:30 AM79 °FHaze.No wind70%29.80 "Hg2 mi
3:00 AM79 °FHaze.3 mph70%29.80 "Hg2 mi
2:30 AM79 °FHaze.5 mph70%29.80 "Hg2 mi
1:30 AM81 °FHaze.3 mph70%29.80 "Hg2 mi
1:00 AM81 °FHaze.5 mph70%29.80 "Hg2 mi
12:30 AM81 °FHaze.5 mph70%29.80 "Hg2 mi
12:00 AM84 °FHaze.5 mph66%29.80 "Hg2 mi
11:30 PM
Fri, Sep 4
88 °FHaze.5 mph55%29.83 "Hg2 mi
11:00 PM88 °FHaze.3 mph46%29.83 "Hg2 mi
10:30 PM88 °FHaze.5 mph46%29.83 "Hg2 mi
10:00 PM88 °FHaze.3 mph46%29.83 "Hg2 mi
9:30 PM90 °FHaze.3 mph43%29.80 "Hg2 mi
9:00 PM90 °FHaze.6 mph43%29.80 "Hg2 mi
8:30 PM90 °FHaze.5 mph46%29.80 "Hg2 mi
8:00 PM90 °FHaze.6 mph43%29.80 "Hg2 mi
7:30 PM91 °FHaze.6 mph36%29.80 "Hg2 mi
7:00 PM93 °FHaze.7 mph34%29.80 "Hg2 mi
6:30 PM95 °FHaze.8 mph32%29.77 "Hg3 mi
6:00 PM95 °FHaze.8 mph34%29.77 "Hg3 mi
5:30 PM95 °FHaze.9 mph36%29.77 "Hg3 mi
5:00 PM95 °FHaze.8 mph34%29.77 "Hg3 mi
4:30 PM95 °FHaze.9 mph34%29.77 "Hg3 mi
Weather by CustomWeather, © 2015

See weather overviewHow to use our weather pages